Regional Weather Roundup
Issued by NWS State College, PA

Home | Current Version | Previous Version | Graphics & Text | Print | Product List | Glossary On
Versions: 1 2 3 4 5 6 7 8 9 10 11 12 13 14 15 16 17 18 19 20 21 22 23 24 25 26 27 28 29 30 31 32 33 34 35 36 37 38 39 40 41 42 43 44 45 46 47 48 49 50
000
ASUS41 KCTP 211103
RWRCTP

REGIONAL WEATHER ROUNDUP
NATIONAL WEATHER SERVICE STATE COLLEGE PA
700 AM EDT SUN SEP 21 2014

Note: "fair" indicates few or no clouds below 12,000 feet with no
significant weather and/or obstructions to visibility.

* = STATION THAT DOES NOT REPORT PRECIPITATION /E.G. RAIN...SNOW...ETC/
    THUNDER OR FOG.

PAZ002>004-007>009-013>016-020>023-029>032-211200-
WESTERN PENNSYLVANIA

CITY           SKY/WX    TMP DP  RH WIND       PRES   REMARKS
ERIE           LGT RAIN  69  63  81 S14       29.67F
MEADVILLE      CLOUDY    67  62  84 S9G20     29.74F
FRANKLIN*      CLOUDY    64  61  88 S12       29.78F
NEW CASTLE     NOT AVBL
BEAVER COUNTY  NOT AVBL
BUTLER*        MOCLDY    66  61  82 S9G17     29.82F
PITTSBURGH INT PTCLDY    67  62  84 S9        29.80F
PITTSBURGH     PTCLDY    64  58  80 S9        29.83
INDIANA*       CLOUDY    64  59  82 MISG      29.88S
LATROBE        CLEAR     63  61  94 SW12      29.85F
WASHINGTON CO* CLEAR     64  61  88 S6        29.84F
$$

PAZ004>006-010>012-017>019-024>028-033>037-041-042-045-046-049>053-211200-
CENTRAL PENNSYLVANIA

CITY           SKY/WX    TMP DP  RH WIND       PRES   REMARKS
BRADFORD       CLOUDY    63  60  90 S8        29.81F
DUBOIS         CLOUDY    63  60  90 VRB7      29.82F
CLEARFIELD     CLOUDY    58  56  93 CALM      29.85F
JOHNSTOWN      CLEAR     62  55  77 S12       29.89F
ALTOONA        PTCLDY    59  56  89 CALM      29.90F
STATE COLLEGE  CLEAR     59  55  88 SW5       29.88S
WILLIAMSPORT   MOCLDY    63  58  83 E9        29.88R
SELINSGROVE    CLEAR     57  55  93 CALM      29.90R FOG
FT INDIANTOWN  FOG       59  59 100 NE2       29.91F VSB<1/4
CAPITAL CITY   CLOUDY    61  59  93 SE5       29.90F FOG
HARRISBURG     FOG       61  60  97 N3        29.90F VSB 1/2
YORK           FOG       53  53 100 CALM      29.90F VSB 1/4
$$

PAZ038>040-043-044-047-048-054-055-060>062-067>071-211200-
EASTERN PENNSYLVANIA

CITY           SKY/WX    TMP DP  RH WIND       PRES   REMARKS
SCRANTON       PTCLDY    57  54  89 CALM      29.92R
MOUNT POCONO   CLOUDY    58  56  93 W5        29.95S FOG
ALLENTOWN      CLOUDY    59  57  93 CALM      29.92S FOG
QUAKERTOWN*    CLOUDY    63  59  88 CALM      29.92S
READING        CLOUDY    59  57  93 CALM      29.91S FOG
LANCASTER      FOG       60  59  96 CALM      29.91F VSB 1/4
COATESVILLE    LGT RAIN  59  59 100 CALM      29.92R VSB<1/4
POTTSTOWN      CLOUDY    59  58  96 CALM      29.92F
BLUE BELL      CLOUDY    63  63 100 CALM      29.90S
DOYLESTOWN     CLOUDY    63  63 100 CALM      29.91S
WILLOW GROVE   NOT AVBL
NORTH PHILA    CLOUDY    68  63  84 NW9       29.93R
PHILADELPHIA   MOCLDY    67  64  90 N8        29.91R FOG
$$



USA.gov is the U.S. government's official web portal to all federal, state and local government web resources and services.